Location: Cactus School
(34.5700°N, 118.0931°W)
Time: 19:12:27
(UTC-07:00)

Transit 4A - Pass Details

Date: 21 April 2024
Orbit: 871 x 971 km, 66.8° (Epoch: 21 May)

Event Time Altitude Azimuth Distance (km) Brightness Sun altitude
Rises 13:15:44 0° 217° (SW) 3,552 11.2 67.0°
Reaches altitude 10° 13:18:20 10° 222° (SW) 2,597 10.7 66.8°
Maximum altitude 13:24:13 55° 299° (WNW) 1,069 9.1 66.4°
Drops below altitude 10° 13:30:00 10° 17° (NNE) 2,549 10.1 66.0°
Sets 13:32:32 0° 22° (NNE) 3,481 10.7 65.8°
